Location: Ford County Road and Bridge Department
(37.7686°N, 99.9762°W)
Time: 18:05:39
(UTC+00:00)

USA 116 - Pass Details

Date: 18 January 2020
Orbit: 405 x 834 km, 97.9° (Epoch: 18 November)

Event Time Altitude Azimuth Distance (km) Brightness Sun altitude
Exits shadow 01:29:34 17° 353° (N) 1,183 5.4 -20.1°
Maximum altitude 01:31:47 44° 286° (WNW) 597 4.3 -20.5°
Drops below altitude 10° 01:34:44 10° 213° (SSW) 1,468 6.5 -21.1°
Sets 01:36:43 0° 207° (SSW) 2,314 7.4 -21.5°
